QPF
0.00 0.00 0.00 0.00 0.00 0.00 0.00 0.00 0.00 0.00 0.00 0.00 0.00 0.00 0.00 0.00 0.00 0.00 0.00 0.00 0.00 0.00 0.00 0.00 0.00 0.00 0.00 0.00 0.00 0.00 0.00 0.00
0.00 0.00 0.00 0.00 0.00 0.00 0.00 0.00 0.00 0.00 0.00 0.00 0.00 0.00 0.00 0.00 0.00 0.00 0.00 0.00 0.00 0.00 0.00 0.00 0.00 0.00 0.00 0.00 0.00 0.00 0.00 0.00
0.00 0.00 0.00 0.00 0.00 0.00 0.00 0.00 0.00 0.00 0.00 0.00 0.00 0.00 0.00 0.00 0.00 0.00 0.00 0.00 0.00 0.00 0.00 0.00 0.00 0.00 0.00 0.00 0.00 0.00 0.00 0.00
0.00 0.00 0.00 0.00 0.00 0.00 0.00 0.00 0.00 0.00 0.00 0.00 0.00 0.00 0.00 0.00 0.00 0.00 0.00 0.00 0.00 0.00 0.00 0.00 0.00 0.00 0.00 0.00 0.00 0.00 0.00 0.00
0.00 0.00 0.00 0.00 0.00 0.00 0.00 0.00 0.00 0.00 0.00 0.00 0.00 0.00 0.00 0.00 0.00 0.00 0.00 0.00 0.00 0.00 0.00 0.00 0.00 0.00 0.00 0.00 0.00 0.00 0.00 0.00
0.00 0.00 0.00 0.00 0.00 0.00 0.00 0.00 0.00 0.00 0.00 0.00 0.00 0.00 0.00 0.00 0.00 0.00 0.00 0.00 0.00 0.00 0.00 0.00 0.00 0.00 0.00 0.00 0.00 0.00 0.00 0.00
0.00 0.00 0.00 0.00 0.00 0.00 0.00 0.00 0.00 0.00 0.00 0.00 0.00 0.00 0.00 0.00 0.00 0.00 0.00 0.00 0.00 0.00 0.00 0.00 0.00 0.00 0.00 0.00 0.00 0.00 0.00 0.00
0.00 0.00 0.00 0.00 0.00 0.00 0.00 0.00 0.00 0.00 0.00 0.00 0.00 0.00 0.00 0.00 0.00 0.00 0.00 0.00 0.00 0.00 0.00 0.00 0.00 0.00 0.00 0.00 0.00 0.00 0.00 0.00
0.00 0.00 0.00 0.00 0.00 0.00 0.00 0.00 0.00 0.00 0.00 0.00 0.00 0.00 0.00 0.00 0.00 0.00 0.00 0.00 0.00 0.00 0.00 0.00 0.00 0.00 0.00 0.00 0.00 0.00 0.00 0.00
0.00 0.00 0.00 0.00 0.00 0.00 0.00 0.00 0.00 0.00 0.00 0.00 0.00 0.00 0.00 0.00 0.00 0.00 0.00 0.00 0.00 0.00 0.00 0.00 0.00 0.00 0.00 0.00 0.00 0.00 0.00 0.00
0.00 0.00 0.00 0.00 0.00 0.00 0.00 0.00 0.00 0.00 0.00 0.00 0.00 0.00 0.00 0.00 0.00 0.00 0.00 0.00 0.00 0.00 0.00 0.00 0.00 0.00 0.00 0.00 0.00 0.00 0.00 0.00
0.00 0.00 0.00 0.00 0.00 0.00 0.00 0.00 0.00 0.00 0.00 0.00 0.00 0.00 0.00 0.00 0.00 0.00 0.00 0.00 0.00 0.00 0.00 0.00 0.00 0.00 0.00 0.00 0.00 0.00 0.00 0.00
0.00 0.00 0.00 0.00 0.00 0.00 0.00 0.00 0.00 0.00 0.00 0.00 0.00 0.00 0.00 0.00 0.00 0.00 0.00 0.00 0.00 0.00 0.00 0.00 0.00 0.00 0.00 0.00 0.00 0.00 0.00 0.00
0.00 0.00 0.00 0.00 0.00 0.00 0.00 0.00 0.00 0.00 0.00 0.00 0.00 0.00 0.00 0.00 0.00 0.00 0.00 0.00 0.00 0.00 0.00 0.00 0.00 0.00 0.00 0.00 0.00 0.00 0.00 0.00
0.02 0.00 0.00 0.00 0.00 0.00 0.00 0.00 0.00 0.00 0.00 0.00 0.00 0.00 0.00 0.00 0.00 0.00 0.00 0.00 0.00 0.00 0.00 0.00 0.00 0.00 0.00 0.00 0.00 0.00 0.00 0.00
0.02 0.00 0.00 0.00 0.00 0.00 0.00 0.00 0.00 0.00 0.00 0.00 0.00 0.00 0.00 0.00 0.00 0.00 0.00 0.00 0.00 0.00 0.00 0.00 0.00 0.00 0.00 0.00 0.00 0.00 0.00 0.00
0.02 0.02 0.02 0.00 0.01 0.01 0.01 0.00 0.00 0.00 0.00 0.00 0.00 0.00 0.00 0.00 0.00 0.00 0.00 0.00 0.00 0.00 0.00 0.00 0.00 0.00 0.00 0.00 0.00 0.00 0.00 0.00
0.00 0.01 0.02 0.04 0.06 0.11 0.03 0.03 0.01 0.00 0.00 0.00 0.00 0.00 0.00 0.00 0.00 0.00 0.00 0.00 0.00 0.00 0.00 0.00 0.00 0.00 0.00 0.00 0.00 0.00 0.00 0.00
0.00 0.00 0.00 0.00 0.01 0.03 0.02 0.01 0.07 0.01 0.01 0.00 0.00 0.00 0.00 0.00 0.00 0.00 0.00 0.00 0.00 0.00 0.00 0.00 0.00 0.00 0.00 0.00 0.00 0.00 0.00 0.00
0.00 0.00 0.00 0.01 0.02 0.03 0.02 0.01 0.05 0.04 0.00 0.00 0.00 0.00 0.00 0.00 0.00 0.00 0.00 0.00 0.00 0.00 0.00 0.00 0.00 0.00 0.00 0.00 0.00 0.00 0.00 0.00
MSLP
1010.33 1010.76 1011.12 1011.70 1012.28 1012.84 1013.42 1013.91 1014.44 1014.97 1015.44 1016.00 1016.49 1016.93 1017.21 1017.52 1017.72 1018.04 1018.36 1018.68 1018.97 1019.22 1019.50 1019.73 1019.84 1019.82 1019.79 1019.84 1019.83 1020.05 1020.15 1019.92
1010.56 1010.90 1011.30 1011.90 1012.52 1012.96 1013.47 1013.99 1014.52 1015.06 1015.52 1015.94 1016.47 1016.94 1017.36 1017.62 1017.87 1018.11 1018.43 1018.73 1019.03 1019.27 1019.55 1019.78 1019.95 1020.03 1019.99 1019.90 1019.90 1019.89 1020.57 1020.00
1010.67 1011.04 1011.46 1011.93 1012.58 1013.20 1013.67 1014.06 1014.52 1015.05 1015.66 1016.06 1016.49 1016.93 1017.32 1017.67 1017.87 1018.09 1018.35 1018.69 1019.01 1019.29 1019.57 1019.82 1019.99 1020.08 1020.08 1019.93 1019.78 1019.82 1020.17 1020.16
1010.50 1011.00 1011.44 1011.89 1012.38 1013.16 1013.74 1014.15 1014.60 1015.00 1015.46 1016.04 1016.43 1016.76 1017.12 1017.41 1017.76 1018.02 1018.27 1018.57 1018.90 1019.26 1019.53 1019.75 1019.97 1020.17 1020.18 1020.04 1019.92 1019.74 1019.74 1020.09
1010.28 1010.78 1011.12 1011.48 1012.02 1012.96 1013.56 1014.03 1014.49 1014.90 1015.31 1015.76 1016.24 1016.62 1016.90 1017.19 1017.59 1017.97 1018.31 1018.56 1018.87 1019.12 1019.44 1019.73 1019.86 1019.96 1019.96 1019.97 1019.89 1019.78 1019.67 1020.08
1009.94 1010.52 1011.00 1011.33 1011.77 1012.48 1013.03 1013.62 1014.19 1014.68 1015.02 1015.44 1015.87 1016.37 1016.71 1017.09 1017.39 1017.77 1018.20 1018.49 1018.84 1019.09 1019.41 1019.52 1019.60 1019.61 1019.60 1019.63 1019.63 1019.63 1019.65 1019.98
1009.42 1010.08 1010.61 1011.07 1011.55 1011.99 1012.62 1013.11 1013.63 1014.13 1014.66 1015.02 1015.26 1015.72 1016.21 1016.59 1016.91 1017.35 1017.80 1018.24 1018.58 1018.91 1019.09 1019.18 1019.26 1019.29 1019.35 1019.36 1019.34 1019.39 1019.32 1019.61
1008.81 1009.64 1010.09 1010.64 1011.12 1011.62 1012.04 1012.60 1013.09 1013.62 1014.07 1014.46 1014.79 1015.08 1015.52 1015.97 1016.47 1016.88 1017.37 1017.66 1017.97 1018.37 1018.61 1018.79 1018.88 1018.81 1018.83 1018.86 1018.73 1018.76 1018.74 1019.31
1007.93 1008.77 1009.59 1010.04 1010.49 1011.03 1011.47 1011.85 1012.48 1012.92 1013.34 1013.90 1014.33 1014.71 1015.09 1015.37 1015.95 1016.43 1016.64 1016.99 1017.39 1017.84 1018.06 1018.30 1018.52 1018.50 1018.57 1018.30 1018.38 1018.45 1018.67 1018.82
1006.69 1007.62 1008.68 1009.48 1010.02 1010.38 1010.86 1011.18 1011.79 1012.19 1012.54 1013.11 1013.65 1014.17 1014.56 1015.02 1015.36 1015.80 1016.05 1016.45 1016.80 1017.23 1017.67 1018.01 1018.17 1018.22 1018.13 1018.08 1018.20 1018.22 1018.24 1018.52
1005.76 1006.61 1007.44 1008.58 1009.38 1010.01 1010.34 1010.67 1011.20 1011.50 1011.94 1012.39 1012.98 1013.42 1013.78 1014.22 1014.64 1014.89 1015.40 1015.84 1016.30 1016.74 1017.15 1017.33 1017.78 1017.90 1017.92 1017.89 1017.98 1017.95 1017.90 1018.14
1004.46 1005.51 1006.51 1007.38 1008.70 1009.66 1010.05 1010.25 1010.57 1010.86 1011.21 1011.56 1012.16 1012.76 1013.21 1013.63 1014.01 1014.33 1014.68 1015.31 1015.63 1015.98 1016.32 1016.71 1016.96 1017.33 1017.61 1017.68 1017.60 1017.73 1017.79 1018.08
1003.79 1004.91 1005.83 1006.68 1007.59 1008.64 1009.38 1009.31 1009.84 1010.25 1010.63 1010.82 1011.30 1011.79 1012.35 1012.86 1013.42 1013.95 1014.11 1014.53 1014.85 1015.24 1015.73 1016.24 1016.68 1016.90 1017.58 1017.73 1017.68 1017.74 1017.77 1017.81
1002.78 1003.94 1004.94 1005.75 1006.22 1007.11 1008.16 1008.97 1009.37 1009.76 1010.02 1010.24 1010.34 1010.79 1011.42 1012.06 1012.70 1013.13 1013.52 1013.94 1014.27 1014.60 1014.94 1015.65 1016.09 1016.34 1017.16 1017.82 1018.04 1017.97 1017.65 1017.37
1001.89 1002.85 1003.84 1004.61 1005.18 1006.31 1007.49 1008.53 1009.31 1009.52 1009.35 1009.44 1009.83 1010.14 1010.66 1011.11 1011.67 1012.40 1012.87 1013.37 1013.60 1013.83 1014.21 1014.72 1015.33 1015.72 1015.80 1016.61 1017.61 1017.56 1017.48 1017.22
1000.91 1001.77 1002.65 1003.82 1004.65 1005.22 1005.95 1006.63 1007.74 1008.14 1008.57 1008.98 1009.35 1009.55 1009.90 1010.19 1010.65 1011.38 1011.99 1012.46 1012.90 1013.05 1013.53 1013.75 1014.43 1014.88 1015.57 1015.13 1015.57 1016.09 1017.11 1017.66
1000.64 1001.42 1002.20 1002.78 1003.75 1004.47 1005.26 1005.93 1006.23 1007.02 1007.94 1008.47 1008.67 1009.04 1009.22 1009.62 1010.16 1010.71 1011.11 1011.56 1011.88 1012.27 1012.70 1013.10 1013.31 1013.87 1014.10 1014.65 1015.13 1015.50 1015.97 1016.88
1000.74 1001.17 1001.67 1002.37 1003.59 1004.57 1005.32 1005.50 1005.96 1006.25 1006.75 1007.68 1008.03 1008.23 1008.73 1008.97 1009.27 1009.70 1010.19 1010.66 1010.90 1011.22 1011.75 1012.29 1012.65 1012.98 1013.36 1013.59 1013.71 1014.35 1015.00 1015.93
1001.85 1002.07 1002.01 1002.34 1002.98 1004.31 1005.61 1005.13 1005.32 1005.13 1005.25 1006.26 1007.10 1007.44 1007.71 1007.90 1008.25 1008.82 1009.14 1009.45 1010.05 1010.68 1011.06 1011.35 1011.73 1012.23 1012.54 1012.71 1013.06 1013.06 1013.54 1014.49
1002.35 1002.88 1003.20 1003.31 1004.14 1004.03 1004.47 1004.23 1004.63 1004.34 1004.33 1005.20 1005.82 1006.05 1006.25 1006.70 1007.13 1007.63 1008.19 1008.66 1009.24 1009.73 1010.04 1010.45 1010.81 1011.16 1011.49 1011.91 1012.35 1012.61 1012.99 1013.51
Thickness
5806 5803 5800 5795 5790 5786 5782 5777 5772 5767 5762 5757 5752 5748 5745 5742 5740 5737 5734 5732 5731 5729 5727 5725 5724 5724 5724 5724 5725 5725 5724 5724
5803 5800 5797 5791 5786 5783 5780 5776 5771 5765 5761 5757 5752 5748 5744 5741 5738 5736 5734 5731 5729 5728 5726 5724 5722 5721 5722 5724 5724 5725 5720 5723
5799 5797 5793 5789 5784 5779 5776 5773 5769 5765 5759 5755 5751 5748 5744 5741 5738 5736 5733 5731 5729 5726 5724 5723 5721 5721 5720 5722 5724 5724 5722 5719
5796 5794 5792 5787 5782 5777 5773 5770 5767 5763 5759 5754 5751 5748 5745 5742 5739 5736 5734 5731 5728 5725 5723 5722 5720 5719 5719 5720 5721 5723 5723 5719
5793 5792 5789 5787 5783 5776 5772 5769 5765 5762 5758 5754 5750 5747 5745 5743 5740 5736 5733 5731 5729 5726 5723 5721 5720 5720 5719 5719 5719 5720 5720 5715
5791 5789 5787 5785 5781 5776 5772 5769 5764 5760 5757 5754 5751 5748 5745 5742 5740 5737 5734 5731 5728 5726 5723 5722 5721 5720 5719 5719 5718 5717 5718 5713
5788 5787 5785 5783 5779 5776 5771 5768 5765 5761 5757 5754 5753 5750 5747 5743 5741 5738 5735 5731 5728 5726 5724 5722 5722 5721 5719 5717 5718 5716 5716 5714
5787 5783 5784 5783 5778 5775 5772 5766 5765 5761 5758 5755 5753 5751 5749 5745 5742 5740 5735 5733 5730 5727 5725 5723 5722 5722 5722 5720 5720 5717 5716 5715
5785 5782 5780 5780 5779 5776 5773 5768 5764 5762 5759 5755 5753 5751 5749 5748 5743 5739 5738 5735 5733 5729 5726 5723 5722 5721 5720 5720 5719 5717 5713 5712
5790 5786 5780 5776 5777 5775 5774 5770 5765 5763 5761 5757 5753 5750 5749 5746 5745 5742 5739 5736 5733 5730 5727 5724 5722 5721 5721 5720 5717 5716 5713 5711
5791 5787 5783 5775 5773 5771 5772 5771 5767 5762 5761 5757 5753 5752 5749 5747 5744 5744 5741 5738 5734 5730 5727 5726 5722 5720 5718 5718 5716 5713 5711 5707
5795 5790 5784 5778 5769 5764 5766 5768 5767 5765 5761 5759 5755 5751 5749 5747 5744 5742 5741 5737 5735 5733 5730 5726 5723 5719 5717 5715 5715 5713 5710 5705
5788 5786 5783 5776 5768 5761 5760 5766 5765 5763 5761 5758 5756 5754 5751 5748 5744 5741 5739 5737 5735 5733 5728 5723 5719 5717 5709 5706 5706 5705 5703 5701
5782 5780 5781 5778 5774 5769 5763 5760 5761 5760 5759 5759 5759 5756 5750 5745 5743 5740 5739 5736 5733 5731 5728 5720 5717 5715 5703 5696 5691 5694 5696 5698
5778 5776 5776 5779 5779 5768 5758 5752 5750 5752 5758 5759 5758 5755 5751 5745 5741 5739 5737 5734 5732 5731 5727 5723 5714 5712 5711 5700 5684 5684 5688 5692
5777 5777 5773 5771 5772 5766 5758 5755 5749 5756 5756 5755 5753 5753 5752 5749 5744 5739 5736 5733 5730 5729 5725 5722 5716 5709 5704 5708 5704 5697 5684 5678
5768 5770 5766 5766 5765 5765 5757 5752 5755 5755 5750 5749 5750 5749 5751 5749 5744 5740 5737 5733 5731 5728 5723 5719 5717 5711 5709 5703 5699 5694 5690 5678
5754 5757 5759 5760 5754 5748 5745 5746 5746 5747 5747 5743 5745 5747 5744 5745 5745 5742 5738 5734 5732 5729 5725 5720 5716 5712 5709 5707 5706 5699 5690 5678
5730 5732 5741 5746 5747 5731 5725 5740 5741 5746 5746 5742 5739 5741 5743 5745 5745 5740 5738 5737 5732 5725 5721 5720 5716 5710 5707 5707 5704 5704 5697 5685
5716 5715 5717 5724 5720 5721 5724 5735 5737 5742 5744 5743 5741 5743 5746 5747 5744 5742 5738 5735 5730 5724 5720 5717 5715 5711 5707 5705 5701 5700 5696 5689